TimeCST,TemperatureF,Dew PointF,Humidity,Sea Level PressureIn,VisibilityMPH,Wind Direction,Wind SpeedMPH,Gust SpeedMPH,PrecipitationIn,Events,Conditions,WindDirDegrees,DateUTC
12:53 AM,69.1,63.0,81,30.16,10.0,SSE,12.7,-,N/A,,Overcast,160,2013-01-28 06:53:00
1:07 AM,69.8,62.6,78,30.14,10.0,SSE,9.2,-,N/A,,Overcast,150,2013-01-28 07:07:00
1:38 AM,69.8,62.6,78,30.15,10.0,SSE,11.5,-,N/A,,Overcast,160,2013-01-28 07:38:00
1:45 AM,69.8,62.6,78,30.14,10.0,SSE,12.7,-,N/A,,Overcast,160,2013-01-28 07:45:00
1:53 AM,68.0,63.0,84,30.16,10.0,SSE,11.5,-,N/A,,Overcast,160,2013-01-28 07:53:00
2:02 AM,68.0,62.6,83,30.14,10.0,SSE,10.4,-,N/A,,Overcast,160,2013-01-28 08:02:00
2:53 AM,68.0,63.0,84,30.16,10.0,SSE,8.1,-,N/A,,Overcast,160,2013-01-28 08:53:00
3:53 AM,66.9,63.0,87,30.15,10.0,SSE,5.8,-,N/A,,Overcast,150,2013-01-28 09:53:00
4:53 AM,64.9,62.1,90,30.15,9.0,SE,4.6,-,N/A,,Overcast,130,2013-01-28 10:53:00
5:53 AM,64.9,62.1,90,30.16,10.0,ESE,5.8,-,N/A,,Overcast,110,2013-01-28 11:53:00
6:53 AM,64.9,62.1,90,30.18,9.0,ESE,4.6,-,N/A,,Overcast,110,2013-01-28 12:53:00
7:53 AM,64.9,63.0,93,30.19,8.0,ESE,5.8,-,N/A,,Overcast,110,2013-01-28 13:53:00
8:00 AM,66.2,62.6,88,30.17,8.0,ESE,5.8,-,N/A,,Overcast,120,2013-01-28 14:00:00
8:53 AM,66.9,64.0,90,30.20,10.0,ESE,5.8,-,N/A,,Overcast,120,2013-01-28 14:53:00
9:53 AM,69.1,64.0,84,30.21,10.0,ESE,10.4,-,N/A,,Overcast,120,2013-01-28 15:53:00
10:53 AM,71.1,64.0,78,30.20,10.0,SE,9.2,-,N/A,,Overcast,130,2013-01-28 16:53:00
11:33 AM,73.4,64.4,73,30.17,10.0,SE,11.5,-,N/A,,Overcast,130,2013-01-28 17:33:00
11:53 AM,73.0,64.9,76,30.18,10.0,SSE,10.4,-,N/A,,Overcast,160,2013-01-28 17:53:00
12:06 PM,73.4,64.4,73,30.15,10.0,SSE,12.7,-,N/A,,Overcast,150,2013-01-28 18:06:00
12:53 PM,75.0,66.0,73,30.14,10.0,SSE,11.5,-,N/A,,Overcast,150,2013-01-28 18:53:00
1:53 PM,75.0,66.0,73,30.13,10.0,South,9.2,17.3,N/A,,Overcast,170,2013-01-28 19:53:00
2:45 PM,73.4,66.2,78,30.09,10.0,SSE,11.5,-,N/A,,Overcast,160,2013-01-28 20:45:00
2:53 PM,73.9,66.0,76,30.12,10.0,SSE,15.0,21.9,N/A,,Overcast,160,2013-01-28 20:53:00
3:53 PM,73.9,66.0,76,30.11,10.0,SSE,13.8,20.7,N/A,,Overcast,160,2013-01-28 21:53:00
4:04 PM,73.4,66.2,78,30.09,10.0,SSE,18.4,23.0,N/A,,Mostly Cloudy,160,2013-01-28 22:04:00
4:32 PM,73.4,66.2,78,30.09,10.0,SSE,12.7,-,N/A,,Overcast,160,2013-01-28 22:32:00
4:53 PM,73.0,64.9,76,30.11,10.0,SSE,16.1,-,N/A,,Overcast,150,2013-01-28 22:53:00
5:15 PM,71.6,64.4,78,30.08,10.0,SSE,12.7,-,N/A,,Mostly Cloudy,150,2013-01-28 23:15:00
5:37 PM,71.6,66.2,83,30.08,10.0,SSE,9.2,-,N/A,,Mostly Cloudy,150,2013-01-28 23:37:00
5:53 PM,71.1,64.9,81,30.10,10.0,SSE,11.5,18.4,N/A,,Overcast,150,2013-01-28 23:53:00
6:35 PM,69.8,64.4,83,30.07,10.0,SSE,6.9,-,N/A,,Scattered Clouds,160,2013-01-29 00:35:00
6:53 PM,68.0,64.9,90,30.09,9.0,SSE,8.1,-,N/A,,Clear,150,2013-01-29 00:53:00
7:17 PM,68.0,64.4,88,30.07,8.0,SSE,8.1,-,N/A,,Partly Cloudy,150,2013-01-29 01:17:00
7:37 PM,69.8,66.2,88,30.07,8.0,SSE,10.4,-,N/A,,Mostly Cloudy,150,2013-01-29 01:37:00
7:53 PM,69.1,66.0,90,30.10,8.0,SSE,15.0,19.6,N/A,,Overcast,160,2013-01-29 01:53:00
8:53 PM,69.1,66.9,93,30.09,8.0,SSE,13.8,23.0,N/A,,Overcast,160,2013-01-29 02:53:00
9:53 PM,70.0,66.9,90,30.08,8.0,SSE,10.4,20.7,N/A,,Overcast,160,2013-01-29 03:53:00
10:53 PM,69.1,66.0,90,30.08,9.0,SSE,13.8,-,N/A,,Overcast,160,2013-01-29 04:53:00
11:53 PM,69.1,66.0,90,30.08,8.0,SSE,11.5,18.4,N/A,,Overcast,160,2013-01-29 05:53:00